User: anonymous   Login
Location: Caltech
(34.1382°N, 118.1253°W)
Time: 09:02:39
(UTC-07:00)
Language:

Cosmos 1125 Rocket - Orbit

View from above orbital plane
View from above orbital plane
View from above satellite
View from above satellite

Ground track
Ground track

The orbit data is extracted from the following two-line orbital elements,

1 11511U 79078B   16177.52009718  .00000051  00000-0  26167-4 0  9996
2 11511  74.0370 250.8256 0016381 225.2957 134.6863 14.36715605927390
Epoch (UTC): 25 June 2016 12:28:56
Eccentricity: 0.0016381
inclination: 74.0370°
perigee height: 757 km
apogee height: 781 km
right ascension of ascending node: 250.8256°
argument of perigee: 225.2957°
revolutions per day: 14.36715605
mean anomaly at epoch: 134.6863°
orbit number at epoch: 92739

The dashed part of the orbit path shows where the satellite is in the earth's shadow,  

DLR